Date String (YYYY-MM-DD hh:mm:ss) UTC,Instrument flags,absolute air pressure of the measurement (hPa),sample flow rate (lpm),inlet stack bypass flow (lpm),air temperature of the measurement (°C),ambient temperature measured by the external sensor (°C),aerosol sample conditioner tube jacket temperature (°C),OPC LED temperature (°C),internal box temperature (°C),relative humidity of the measurement (%),span deviation,mass concentration of particles derived from Lorenz-Mie calculation of OPC scattering (μg/m³),mass concentration of particles derived from Lorenz-Mie calculation of OPC scattering (μg/m³),mass concentration of particles derived from Lorenz-Mie calculation of OPC scattering (μg/m³)
DateTimeUTC,F1_M11,P_M11,Q1_M11,Q2_M11,T1_M11,T2_M11,T3_M11,T4_M11,T5_M11,U1_M11,ZSPAN_M11,X2_M11,X0_M11,X1_M11
2024-03-11 13:00:00,SystemResetWarning,0825.2,4.99,000.00,019.9,019.2,000.0,028.4,021.6,07.0,0000.0,0005.13,0018.31,0002.11
2024-03-11 13:01:00,SystemResetWarning,0825.2,5.00,000.00,019.9,019.2,000.0,028.4,021.6,06.9,0000.0,0005.16,0018.10,0002.13
2024-03-11 13:02:00,SystemResetWarning,0825.2,5.01,000.00,019.9,019.2,000.0,028.4,021.6,07.1,0000.0,0005.22,0018.05,0002.14
2024-03-11 13:03:00,SystemResetWarning,0825.2,5.01,000.00,019.9,019.2,000.0,028.4,021.6,07.7,0000.0,0005.27,0018.05,0002.11
2024-03-11 13:04:00,SystemResetWarning,0825.3,4.99,000.00,019.9,019.2,000.0,028.4,021.6,08.0,0000.0,0005.27,0018.63,0002.11
2024-03-11 13:05:00,SystemResetWarning,0825.3,4.99,000.00,019.9,019.1,000.0,028.4,021.6,07.8,0000.0,0005.27,0018.63,0002.12
2024-03-11 13:06:00,SystemResetWarning,0825.2,5.00,000.00,019.9,019.1,000.0,028.4,021.6,07.5,0000.0,0005.28,0017.32,0002.14
2024-03-11 13:07:00,SystemResetWarning,0825.3,5.01,000.00,019.8,019.1,000.0,028.4,021.6,07.3,0000.0,0005.31,0017.48,0002.16
2024-03-11 13:08:00,SystemResetWarning,0825.3,5.00,000.00,019.8,019.1,000.0,028.4,021.6,07.2,0000.0,0005.34,0017.39,0002.15
2024-03-11 13:09:00,SystemResetWarning,0825.4,5.00,000.00,019.8,019.1,000.0,028.3,021.6,07.2,0000.0,0005.32,0017.21,0002.15
2024-03-11 13:10:00,SystemResetWarning,0825.3,5.01,000.00,019.8,019.1,000.0,028.3,021.6,07.1,0000.0,0005.26,0017.03,0002.14
2024-03-11 13:11:00,SystemResetWarning,0825.3,5.00,000.00,019.8,019.1,000.0,028.3,021.6,07.0,0000.0,0005.21,0016.87,0002.13
2024-03-11 13:12:00,SystemResetWarning,0825.3,4.99,000.00,019.8,019.1,000.0,028.3,021.6,07.0,0000.0,0005.25,0017.55,0002.12
2024-03-11 13:13:00,SystemResetWarning,0825.4,4.99,000.00,019.8,019.1,000.0,028.3,021.6,07.1,0000.0,0005.27,0018.46,0002.12
2024-03-11 13:14:00,SystemResetWarning,0825.4,5.01,000.00,019.8,019.1,000.0,028.3,021.6,07.1,0000.0,0005.25,0018.93,0002.13
2024-03-11 13:15:00,SystemResetWarning,0825.4,5.00,000.00,019.8,019.1,000.0,028.3,021.6,07.2,0000.0,0005.24,0018.61,0002.14
2024-03-11 13:16:00,SystemResetWarning,0825.4,5.00,000.00,019.8,019.1,000.0,028.3,021.6,07.3,0000.0,0005.27,0018.66,0002.13
2024-03-11 13:17:00,SystemResetWarning,0825.3,5.00,000.00,019.8,019.1,000.0,028.3,021.6,07.5,0000.0,0005.23,0018.96,0002.11
2024-03-11 13:18:00,SystemResetWarning,0825.3,5.00,000.00,019.8,019.1,000.0,028.3,021.6,07.5,0000.0,0005.14,0018.13,0002.09
2024-03-11 13:19:00,SystemResetWarning,0825.2,5.00,000.00,019.8,019.1,000.0,028.3,021.6,07.3,0000.0,0005.13,0018.78,0002.11
2024-03-11 13:20:00,SystemResetWarning,0825.3,5.01,000.00,019.8,019.1,000.0,028.3,021.6,07.1,0000.0,0005.12,0018.75,0002.11
2024-03-11 13:21:00,SystemResetWarning,0825.3,5.00,000.00,019.8,019.1,000.0,028.3,021.6,07.5,0000.0,0005.13,0020.00,0002.12
2024-03-11 13:22:00,SystemResetWarning,0825.2,5.00,000.00,019.8,019.1,000.0,028.3,021.6,07.3,0000.0,0005.15,0020.49,0002.13
2024-03-11 13:23:00,SystemResetWarning,0825.2,5.00,000.00,019.8,019.1,000.0,028.3,021.6,07.2,0000.0,0005.10,0019.89,0002.14
2024-03-11 13:24:00,SystemResetWarning,0825.2,4.99,000.00,019.8,019.1,000.0,028.3,021.6,07.3,0000.0,0005.01,0018.65,0002.14
2024-03-11 13:25:00,SystemResetWarning,0825.2,5.00,000.00,019.8,019.1,000.0,028.3,021.6,07.3,0000.0,0004.99,0017.81,0002.14
2024-03-11 13:26:00,SystemResetWarning,0825.2,5.00,000.00,019.8,019.1,000.0,028.3,021.6,07.4,0000.0,0004.99,0018.23,0002.12
2024-03-11 13:27:00,SystemResetWarning,0825.2,5.00,000.00,019.8,019.1,000.0,028.3,021.5,07.3,0000.0,0005.02,0018.96,0002.13
2024-03-11 13:28:00,SystemResetWarning,0825.2,5.00,000.00,019.8,019.1,000.0,028.3,021.5,07.4,0000.0,0005.01,0018.52,0002.12
2024-03-11 13:29:00,SystemResetWarning,0825.3,5.00,000.00,019.8,019.1,000.0,028.3,021.5,07.3,0000.0,0005.15,0018.90,0002.14
2024-03-11 13:30:00,SystemResetWarning,0825.3,5.00,000.00,019.8,019.1,000.0,028.3,021.5,07.2,0000.0,0005.10,0018.02,0002.12
2024-03-11 13:31:00,SystemResetWarning,0825.3,5.00,000.00,019.8,019.1,000.0,028.3,021.5,07.7,0000.0,0005.06,0017.72,0002.13
2024-03-11 13:32:00,SystemResetWarning,0825.4,5.00,000.00,019.8,019.0,000.0,028.3,021.5,08.7,0000.0,0005.01,0016.63,0002.10
2024-03-11 13:33:00,SystemResetWarning,0825.5,5.00,000.00,019.8,019.0,000.0,028.3,021.5,08.9,0000.0,0005.03,0015.85,0002.08
2024-03-11 13:34:00,SystemResetWarning,0825.5,5.01,000.00,019.7,018.9,000.0,028.3,021.4,08.7,0000.0,0005.11,0016.22,0002.09
2024-03-11 13:35:00,SystemResetWarning,0825.5,5.01,000.00,019.7,018.8,000.0,028.3,021.4,08.7,0000.0,0005.20,0016.75,0002.10
2024-03-11 13:36:00,SystemResetWarning,0825.6,4.99,000.00,019.7,018.8,000.0,028.3,021.4,08.6,0000.0,0005.20,0017.37,0002.07
2024-03-11 13:37:00,SystemResetWarning,0825.6,4.99,000.00,019.7,018.8,000.0,028.3,021.4,08.7,0000.0,0005.14,0016.91,0002.10
2024-03-11 13:38:00,SystemResetWarning,0825.6,5.00,000.00,019.7,018.8,000.0,028.2,021.4,08.5,0000.0,0005.06,0016.02,0002.11
2024-03-11 13:39:00,SystemResetWarning,0825.6,5.00,000.00,019.7,018.8,000.0,028.2,021.4,08.2,0000.0,0005.06,0015.68,0002.11
2024-03-11 13:40:00,SystemResetWarning,0825.5,5.01,000.00,019.7,018.8,000.0,028.2,021.4,08.0,0000.0,0004.96,0014.94,0002.09
2024-03-11 13:41:00,SystemResetWarning,0825.5,5.00,000.00,019.7,018.8,000.0,028.2,021.3,07.8,0000.0,0004.97,0015.23,0002.08
2024-03-11 13:42:00,SystemResetWarning,0825.4,5.00,000.00,019.6,018.8,000.0,028.2,021.3,07.6,0000.0,0004.99,0015.57,0002.05
2024-03-11 13:43:00,SystemResetWarning,0825.5,5.00,000.00,019.6,018.8,000.0,028.2,021.3,07.6,0000.0,0004.96,0015.51,0002.04
2024-03-11 13:44:00,SystemResetWarning,0825.5,5.00,000.00,019.6,018.8,000.0,028.2,021.3,07.8,0000.0,0004.90,0015.91,0002.03
2024-03-11 13:45:00,SystemResetWarning,0825.5,5.00,000.00,019.6,018.8,000.0,028.2,021.3,07.9,0000.0,0004.90,0016.05,0002.03
2024-03-11 13:46:00,SystemResetWarning,0825.5,5.00,000.00,019.6,018.8,000.0,028.2,021.3,07.6,0000.0,0004.83,0015.71,0002.04
2024-03-11 13:47:00,SystemResetWarning,0825.5,5.00,000.00,019.6,018.8,000.0,028.2,021.3,07.6,0000.0,0004.80,0015.07,0002.05
2024-03-11 13:48:00,SystemResetWarning,0825.6,5.00,000.00,019.6,018.8,000.0,028.1,021.3,07.4,0000.0,0004.88,0015.19,0002.04
2024-03-11 13:49:00,SystemResetWarning,0825.6,5.00,000.00,019.6,018.8,000.0,028.1,021.3,07.3,0000.0,0004.92,0015.15,0002.05
2024-03-11 13:50:00,SystemResetWarning,0825.5,5.00,000.00,019.6,018.8,000.0,028.1,021.3,07.5,0000.0,0004.91,0016.36,0002.04
2024-03-11 13:51:00,SystemResetWarning,0825.5,5.00,000.00,019.6,018.8,000.0,028.1,021.3,07.5,0000.0,0005.01,0017.07,0002.07
2024-03-11 13:52:00,SystemResetWarning,0825.5,5.00,000.00,019.6,018.8,000.0,028.1,021.3,07.6,0000.0,0005.06,0017.01,0002.10
2024-03-11 13:53:00,SystemResetWarning,0825.6,5.00,000.00,019.6,018.8,000.0,028.1,021.3,07.6,0000.0,0005.10,0016.74,0002.12
2024-03-11 13:54:00,SystemResetWarning,0825.6,5.00,000.00,019.6,018.8,000.0,028.1,021.3,07.6,0000.0,0005.17,0016.95,0002.16
2024-03-11 13:55:00,SystemResetWarning,0825.6,5.00,000.00,019.6,018.8,000.0,028.1,021.3,07.9,0000.0,0005.22,0016.82,0002.19
2024-03-11 13:56:00,SystemResetWarning,0825.6,4.99,000.00,019.6,018.9,000.0,028.1,021.3,08.5,0000.0,0005.17,0016.35,0002.19
2024-03-11 13:57:00,SystemResetWarning,0825.6,5.01,000.00,019.6,018.8,000.0,028.1,021.3,07.9,0000.0,0005.18,0016.82,0002.19
2024-03-11 13:58:00,SystemResetWarning,0825.6,5.00,000.00,019.6,018.9,000.0,028.1,021.3,07.7,0000.0,0005.26,0016.76,0002.21
2024-03-11 13:59:00,SystemResetWarning,0825.6,5.00,000.00,019.6,018.9,000.0,028.1,021.3,07.5,0000.0,0005.30,0016.45,0002.24
